Flag for USA

Past Weather in 41°44'21"N, 72°43'09"W, USA — Yesterday and Last 2 Weeks

Now
51 °F

Low clouds.


Feels Like: 51 °F
Forecast: 58 / 46 °F
Wind: No wind

Location: Hartford-Brainard Airport
Current Time: Oct 27, 2020 at 12:40:26 am
Latest Report: Oct 26, 2020 at 11:53 pm
Visibility: 9 mi
Pressure30.09 "Hg
Humidity: 86%
Dew Point: 47 °F
Location of 41°44'21"N, 72°43'09"WLocation

Past Weather in 41°44'21"N, 72°43'09"W — Graph

°F

41°44'21"N, 72°43'09"W Temperature Yesterday

Maximum temperature yesterday: 53 °F (at 3:53 pm)
Minimum temperature yesterday: 47 °F (at 12:53 am)
Average temperature yesterday: 50 °F

High & Low Weather Summary for the Past Weeks

 TemperatureHumidityPressure
High77 °F (Oct 22, 2:53 pm)97% (Oct 20, 11:53 pm)30.54 "Hg (Oct 20, 11:53 pm)
Low33 °F (Oct 18, 6:31 am)25% (Oct 17, 3:53 pm)29.82 "Hg (Oct 14, 12:53 am)
Average56 °F78%30.15 "Hg
* Reported Oct 11 11:53 pm — Oct 26 11:04 pm, 41°44'21"N, 72°43'09"W. Weather by CustomWeather, © 2020

Note: Actual official high and low records may vary slightly from our data, if they occured in-between our weather recording intervals... More about our weather records

41°44'21"N, 72°43'09"W Weather History for the Previous 24 Hours

Scroll right to see more
 ConditionsComfort  
Time TempWeatherWind HumidityBarometerVisibility
11:04 pm
Mon, Oct 26
51 °FLow clouds.No wind83%30.10 "Hg10 mi
9:53 pm52 °FOvercast.3 mph80%30.11 "Hg10 mi
8:53 pm52 °FOvercast.3 mph80%30.11 "Hg10 mi
7:53 pm51 °FMostly cloudy.No wind80%30.13 "Hg10 mi
7:31 pm51 °FOvercast.No wind80%30.14 "Hg10 mi
6:53 pm51 °FOvercast.3 mph80%30.13 "Hg10 mi
5:53 pm52 °FOvercast.6 mph77%30.12 "Hg10 mi
4:53 pm53 °FOvercast.5 mph74%30.12 "Hg10 mi
3:53 pm53 °FOvercast.3 mph74%30.14 "Hg10 mi
2:53 pm52 °FMore clouds than sun.5 mph77%30.16 "Hg10 mi
1:53 pm51 °FMore clouds than sun.5 mph77%30.18 "Hg10 mi
12:53 pm50 °FMore clouds than sun.8 mph77%30.21 "Hg10 mi
11:53 am49 °FOvercast.8 mph80%30.23 "Hg10 mi
10:53 am49 °FOvercast.6 mph80%30.24 "Hg10 mi
9:53 am48 °FOvercast.8 mph80%30.27 "Hg10 mi
8:53 am47 °FOvercast.8 mph83%30.27 "Hg10 mi
7:53 am47 °FOvercast.7 mph80%30.27 "Hg10 mi
6:53 am48 °FOvercast.7 mph74%30.27 "Hg10 mi
6:06 am48 °FOvercast.5 mph71%30.28 "Hg10 mi
5:53 am48 °FMostly cloudy.7 mph71%30.27 "Hg10 mi
4:53 am48 °FOvercast.7 mph68%30.27 "Hg10 mi
3:53 am48 °FOvercast.6 mph68%30.28 "Hg10 mi
2:53 am48 °FOvercast.6 mph68%30.30 "Hg10 mi
1:53 am48 °FOvercast.6 mph71%30.31 "Hg10 mi
12:53 am47 °FOvercast.6 mph74%30.31 "Hg10 mi
Weather by CustomWeather, © 2020

See weather overview